{"data":{"norad_id":43162,"intl_designator":"2018-009A","name":"SBIRS GEO-3 (USA 282)","alt_names":[],"object_type":"PAYLOAD","status":"ACTIVE","operator":null,"country":"US","launch_date":"2018-01-20","launch_site_code":"AFETR","launch_vehicle":null,"mission":null,"orbit_class":"UNKNOWN","rcs_meters":null,"size_class":null,"mass_kg":null,"dimensions":null,"purposes":["comms"],"wikipedia_slug":null,"has_3d_model":false,"image_url":null,"decayed_at":null,"tle_current":{"epoch":"2026-05-25T03:01:06.951360Z","epoch_age_seconds":67381,"freshness":"FRESH","line1":"1 43162U 18009A   26145.12577490  .00000125  00000+0  00000+0 0  9993","line2":"2 43162   2.1692  11.0442 0002188  43.2415  74.3050  1.00271906 30613","mean_motion":1.00271906,"eccentricity":0.0002188,"inclination_deg":2.1692,"raan_deg":11.0442,"arg_perigee_deg":43.2415,"mean_anomaly_deg":74.305,"bstar":0,"rev_number":3061,"period_min":1436.0951710642,"perigee_km":35777.335404601,"apogee_km":35795.786676464,"semimajor_km":42164.698040532,"source":"CELESTRAK","updated_at":"2026-05-25T13:38:14.050216Z"}}}